Regional Weather Roundup
Issued by NWS Albany, NY

Home | Current Version | Previous Version | Text Only | Print | Product List | Glossary On
Versions: 1 2 3 4 5 6 7 8 9 10 11 12 13 14 15 16 17 18 19 20 21 22 23 24 25 26 27 28 29 30 31 32 33 34 35 36 37 38 39 40 41 42 43 44 45 46 47 48 49 50
000
ASUS41 KALY 280510
RWRALY

NEW YORK STATE HOURLY WEATHER ROUNDUP
NATIONAL WEATHER SERVICE ALBANY NY
100 AM EDT SAT MAY 28 2016

NOTE: "FAIR" INDICATES FEW OR NO CLOUDS BELOW 12,000 FEET WITH NO
SIGNIFICANT WEATHER AND/OR NO OBSTRUCTIONS TO VISIBILITY.

NYZ032-033-038>043-046>054-057>066-NYZ062>081-082-084-280600-
EAST


CITY           SKY/WX    TMP DP  RH WIND       PRES   REMARKS
ALBANY         CLOUDY    73  67  81 CALM      30.03R
GLENS FALLS    CLOUDY    71  65  81 CALM      30.01R
POUGHKEEPSIE   CLEAR     70  66  87 CALM      30.04R
NEWBURGH       PTCLDY    68  68 100 CALM      30.07S
MONTGOMERY     PTCLDY    67  66  97 S3        30.05S FOG
WHITE PLAINS   CLEAR     67  61  81 S3        30.08R
ISLIP          PTCLDY    67  57  70 SW17      30.09S
NEW YORK CITY  PTCLDY    77  67  71 S8        30.07R
CENTRAL PARK   CLEAR     75  63  66 VRB6      30.10R
$$

NYZ005>009-017-018-044>046-055-056-280600-
CENTRAL


CITY           SKY/WX    TMP DP  RH WIND       PRES   REMARKS
FULTON         FOG       67  64  90 CALM      30.03S VSB 1/4
SYRACUSE       MOCLDY    68  67  96 CALM      30.02S
ROME           CLOUDY    67  66  97 CALM      30.05S
ELMIRA         CLEAR     66  63  90 S3        30.06R
BINGHAMTON     PTCLDY    71  63  75 SW5       30.08S
MONTICELLO     CLEAR     64  64 100 CALM      30.12S
$$

NYZ026>034-041>043-087-280600-
NORTH


CITY           SKY/WX    TMP DP  RH WIND       PRES   REMARKS
WATERTOWN      PTCLDY    68  65  90 CALM      30.01S FOG
FORT DRUM      NOT AVBL
MASSENA        CLOUDY    71  65  81 SW6       29.99R
SARANAC LAKE   CLOUDY    67  62  84 SW5       30.06R
PLATTSBURGH    CLOUDY    71  63  75 S6        29.97R
$$

NYZ001>004-010>016-019>021-085-280600-
WEST


CITY           SKY/WX    TMP DP  RH WIND       PRES   REMARKS
NIAGARA FALLS  CLOUDY    65  59  81 S5        30.02S
BUFFALO        MOCLDY    67  62  84 S6        30.03F
DUNKIRK        PTCLDY    64  60  87 CALM      30.04S
JAMESTOWN      CLOUDY    64  63  94 CALM      30.09S
WELLSVILLE     CLEAR     66  61  84 CALM      30.14R
ROCHESTER      PTCLDY    67  62  84 CALM      30.04S
PENN YAN       CLEAR     68  62  81 SW3       30.06S
$$

             KEY
       WCI = WIND CHILL INDEX
       VSB = VISIBILITY
       HX  = HEAT INDEX
$$



USA.gov is the U.S. government's official web portal to all federal, state and local government web resources and services.